Date,TemperatureHighF,TemperatureAvgF,TemperatureLowF,DewpointHighF,DewpointAvgF,DewpointLowF,HumidityHigh,HumidityAvg,HumidityLow,PressureMaxIn,PressureMinIn,WindSpeedMaxMPH,WindSpeedAvgMPH,GustSpeedMaxMPH,PrecipitationSumIn
2013-1-10,52,42,36,14,11,9,37,28,21,29.64,29.54,8,2,8,0.00
2013-1-11,41,34,23,22,0,-10,58,23,19,29.64,29.41,24,8,24,0.00
2013-1-12,23,23,23,-10,-10,-10,22,22,22,29.64,29.64,0,0,2,0.00
2013-1-14,31,23,14,11,7,-14,55,49,26,29.77,29.61,4,2,6,0.00
2013-1-15,30,23,7,4,-7,-11,62,27,20,29.99,29.77,14,5,14,0.00
2013-1-16,47,26,8,13,2,-6,58,37,20,30.08,29.98,9,2,9,0.00
2013-1-17,58,39,19,18,12,6,61,36,19,30.17,30.04,5,2,5,0.00
2013-1-18,58,32,19,21,14,10,73,52,21,30.07,29.95,6,2,6,0.00
2013-1-19,62,38,19,22,15,9,71,44,17,30.03,29.93,6,1,6,0.00
2013-1-21,67,63,61,17,16,16,17,16,14,29.89,29.89,5,2,6,0.00
2013-1-22,68,40,22,19,14,10,65,41,14,30.00,29.90,6,1,6,0.00
2013-1-23,71,44,22,18,11,2,58,28,12,30.05,29.94,12,2,12,0.00
2013-1-24,69,44,24,32,12,3,48,29,13,29.99,29.85,9,2,9,0.00
2013-1-27,65,56,44,44,39,33,83,56,33,29.71,29.64,14,6,14,0.01
2013-1-29,45,35,30,28,7,-1,56,32,20,29.64,29.49,24,10,24,0.00
2013-1-30,37,35,27,12,9,7,50,35,29,29.88,29.64,8,4,8,0.00
2013-1-31,53,29,20,23,15,12,74,59,25,29.99,29.87,11,1,11,0.00
2013-2-1,67,36,21,26,18,14,77,55,16,29.98,29.86,9,1,9,0.15
2013-2-4,63,60,57,26,23,20,30,23,19,29.79,29.73,10,3,10,0.00
2013-2-5,67,45,28,25,18,12,67,38,14,29.82,29.71,7,2,7,0.00
2013-2-6,67,60,30,25,20,15,56,22,17,29.72,29.60,16,5,16,0.00
2013-2-12,48,39,28,16,7,0,43,27,19,29.85,29.76,14,5,14,0.00
2013-2-13,28,25,24,7,6,5,46,43,39,29.85,29.84,2,0,2,0.00
2013-2-14,56,43,24,21,15,11,61,35,19,29.84,29.77,21,4,21,0.00
2013-2-15,55,35,24,23,18,12,68,53,18,30.00,29.89,21,3,21,0.00
2013-2-20,56,45,34,32,24,11,73,49,18,29.39,29.29,22,7,22,0.00
2013-2-21,50,38,29,29,25,16,96,63,27,29.55,29.32,17,5,17,0.09
2013-2-22,52,46,42,25,20,8,48,37,21,29.69,29.61,14,7,14,0.00
2013-2-25,55,34,26,23,13,10,78,44,18,29.75,29.65,12,5,14,0.00
2013-7-1,97,88,79,55,52,40,38,30,14,29.93,29.81,19,8,19,0.02
2013-7-2,67,66,66,50,49,49,55,54,54,29.97,29.96,2,1,2,0.00
2013-7-3,97,90,80,54,50,44,36,26,22,29.76,29.67,17,6,17,0.09
2013-7-4,80,80,80,50,50,50,36,36,36,29.73,29.73,16,16,16,0.00
2013-7-5,103,92,69,65,55,44,83,30,14,29.77,29.63,15,5,15,0.54
2013-7-10,103,92,79,61,55,44,47,30,14,29.92,29.76,14,5,14,0.00
2013-7-11,95,81,70,65,60,53,73,52,26,29.95,29.74,12,5,12,0.00
2013-7-12,87,80,72,60,59,59,65,52,38,29.80,29.75,7,4,7,0.00
2013-7-29,82,82,82,61,61,61,50,50,49,29.86,29.86,1,0,6,0.12
2013-8-22,100,83,65,56,51,39,70,37,14,29.93,29.76,10,3,10,0.00
2013-8-23,94,78,60,54,48,42,57,36,21,29.90,29.76,17,4,17,0.00
2013-8-24,93,78,68,66,57,50,85,51,25,29.92,29.80,14,3,14,0.12
2013-8-25,93,77,66,66,62,57,95,64,33,29.98,29.88,14,3,14,0.08
2013-8-26,96,79,64,63,58,53,88,54,27,29.99,29.84,10,3,10,0.00
2013-8-27,97,80,64,58,54,47,73,43,23,29.93,29.78,10,3,10,0.00
2013-8-28,96,76,62,59,53,50,70,48,23,29.92,29.80,14,2,14,0.00